星链-30970 (STARLINK-30970 )

导读

STARLINK-30970是美国SpaceX星链星座的一颗卫星,于2024年1月29日发射升空,属于星链低轨互联网卫星组网的组成部分。星链项目旨在构建全球覆盖的卫星互联网星座,通过数千颗低轨卫星为全球提供宽带互联网接入服务,这颗卫星承担着补充星座容量、提升服务覆盖稳定性的任务。

基本信息
目录编号:
58888
目录名称:
STARLINK-30970
国际标识:
2024-020N
轨道中心:
EARTH
卫星名称:
星链-30970
卫星全名:
星链-30970 (STARLINK-30970 )
卫星状态:
已陨落 最后检测时间 2024-09-09
发射日期:
2024-01-29 UTC
国别 :
美国 (US)
星等 :
--
该卫星已列入 空间交会检测服务 Space Conjunction Data Service (SCDS) ,当前飞行风险评估等级: 无高风险
轨道信息
数据来源 国际轨道数据
星历时间: 2024-09-10T08:04:05+0800
轨道信息已过期732天
半长轴: 6565.754km
偏心率: 0.0006876
轨道倾角: 53.127°
近地点辐角 336.616°
升交点赤经 325.508°
平近点角 103.901°
近地点: 183.104km
远地点: 192.134km
周期: 88.244分钟
每日圈数: 16.318338
详细信息
固有亮度:
5
最大亮度:
0.3
卫星平台:
Starlink v2.0 mini
覆盖范围:
全球
运营商:
太空探索技术公司
运营商所在国:
美国
制造商(研发单位):
太空探索技术公司
制造商所在国:
美国
使用方式:
暂无
卫星简介
星链(Starlink)计划是由太空探索技术公司(SpaceX)提出的一个巨型低轨卫星互联网星座项目,计划在2019年至2024年间在太空搭建由约1.2万颗卫星组成的“星链”网络,其中1584颗将部署在地球上空550千米处的近地轨道,并从2020年开始工作。该卫星仍在工作。
与全量物体交会距离演化趋势
与全量物体交会风险概率演化趋势